KSKA Airport Information

Runway Information
Runway 05 Length 13901 ft width 200 ft
Elevation 2461 ft Threshold 0 ft Heading 67
Runway 23 Length 13901 ft Width 200 ft
Elevation 2414 ft Threshold 0 ft Heading 247
Airport Frequencies
Type A/D Name SPOKANE AP Frequency 123.75 MHZ
Type ATIS Name ATIS Frequency 25.762 MHZ
Type GND Name GND Frequency 121.85 MHZ
Type OPS Name WASHINGTON Frequency 29.37 MHZ
Type PMSV Name PMSV METRO Frequency 23.48 MHZ
Type POST Name COMD POST Frequency 31.1 MHZ
Type PTD Name PTD Frequency 130 MHZ
Type TWR Name TWR Frequency 126.2 MHZ
Airport Navaids
Type TACAN Name Fairchild Frequency 111400 KHZ
Airport Weather Information & NOTAM
ADDS - METARS form results

(0946 UTC 23 July 2018)
 
METAR text: KSKA 230858Z AUTO 00000KT 10SM CLR 15/04 A3016 RMK AO2 SLP203 T01530043 58002 $
Conditions at: KSKA (FAIRCHILD AFB , WA, US) observed 0858 UTC 23 July 2018
Temperature: 15.3°C (60°F)
Dewpoint: 4.3°C (40°F) [RH = 48%]
Pressure (altimeter): 30.16 inches Hg (1021.4 mb)
[Sea-level pressure: 1020.3 mb]
Winds: calm
Visibility: 10 or more miles (16+ km)
Ceiling: at least 12,000 feet AGL
Clouds: sky clear below 12,000 feet AGL
Weather:
SOME DATA ABOVE MAY BE INACCURATE!!!
"$" is an indication the sensor requires maintenance